FW7076 Weather Reports


time (UTC)temp
C
wind
direction
speed
KPH
gust
KPH
rain 1hr
cm
rain 24hr
cm
rain mn
cm
humidity
%
barometer
mb
20260507161328 13 57 4.8 4.8 0.00 0.00 0.00 42 1303.2
20260507160825 12 211 6.4 9.7 0.00 0.00 0.00 43 1303.2
20260507160321 12 309 6.4 8.0 0.00 0.00 0.00 41 1303.4
20260507155818 12 29 4.8 4.8 0.00 0.00 0.00 42 1303.1
20260507155313 12 190 1.6 3.2 0.00 0.00 0.00 42 1303.2
20260507154810 12 357 3.2 4.8 0.00 0.00 0.00 42 1303.5
20260507154307 11 2 4.8 8.0 0.00 0.00 0.00 43 1303.6
20260507153804 11 12 6.4 9.7 0.00 0.00 0.00 43 1303.5
20260507153300 11 250 3.2 3.2 0.00 0.00 0.00 46 1303.5
20260507152757 11 199 3.2 3.2 0.00 0.00 0.00 45 1303.4
20260507152253 11 349 6.4 8.0 0.00 0.00 0.00 46 1303.5
20260507151749 10 325 8.0 12.9 0.00 0.00 0.00 47 1303.5
20260507151246 10 287 9.7 12.9 0.00 0.00 0.00 46 1303.4
20260507150743 10 5 8.0 9.7 0.00 0.00 0.00 47 1303.2
20260507150240 10 299 4.8 4.8 0.00 0.00 0.00 47 1303.4
20260507145736 9 308 3.2 8.0 0.00 0.00 0.00 49 1303.4
20260507145232 9 73 8.0 11.3 0.00 0.00 0.00 49 1303.5
20260507144729 9 33 6.4 9.7 0.00 0.00 0.00 50 1303.6
20260507144227 8 31 3.2 3.2 0.00 0.00 0.00 51 1303.4
20260507143723 8 6 6.4 8.0 0.00 0.00 0.00 51 1303.4
20260507143221 8 324 8.0 9.7 0.00 0.00 0.00 51 1303.7
20260507142716 8 0 6.4 8.0 0.00 0.00 0.00 51 1303.5
20260507142213 7 330 6.4 8.0 0.00 0.00 0.00 52 1303.6
20260507141709 7 67 4.8 8.0 0.00 0.00 0.00 54 1303.7
20260507141207 7 343 3.2 4.8 0.00 0.00 0.00 55 1303.6
20260507140702 7 203 6.4 8.0 0.00 0.00 0.00 52 1303.7
20260507140200 6 358 6.4 8.0 0.00 0.00 0.00 54 1303.7
20260507135657 6 351 9.7 11.3 0.00 0.00 0.00 54 1303.7
20260507135154 6 347 6.4 11.3 0.00 0.00 0.00 55 1303.5
20260507134650 5 17 8.0 11.3 0.00 0.00 0.00 54 1303.5
20260507134147 5 0 8.0 11.3 0.00 0.00 0.00 54 1303.4
20260507133643 5 349 9.7 11.3 0.00 0.00 0.00 54 1303.4
20260507133141 5 2 11.3 12.9 0.00 0.00 0.00 55 1303.5
20260507132638 5 22 6.4 9.7 0.00 0.00 0.00 56 1303.5
20260507132133 4 3 8.0 11.3 0.00 0.00 0.00 56 1303.2
20260507131631 4 28 8.0 11.3 0.00 0.00 0.00 56 1302.6
20260507131128 3 44 8.0 11.3 0.00 0.00 0.00 56 1302.9
20260507130624 3 346 8.0 9.7 0.00 0.00 0.00 58 1303.0
20260507130123 3 21 6.4 9.7 0.00 0.00 0.00 59 1303.0
20260507125621 3 22 4.8 4.8 0.00 0.00 0.00 59 1303.5
20260507125118 2 351 8.0 11.3 0.00 0.00 0.00 60 1302.9
20260507124614 2 16 8.0 12.9 0.00 0.00 0.00 59 1302.9
20260507124112 2 347 11.3 14.5 0.00 0.00 0.00 58 1303.0
20260507123610 2 1 11.3 12.9 0.00 0.00 0.00 58 1302.6
20260507123107 2 8 11.3 12.9 0.00 0.00 0.00 58 1302.8
20260507122602 2 21 11.3 12.9 0.00 0.00 0.00 58 1302.8
20260507122058 2 338 8.0 9.7 0.00 0.00 0.00 58 1302.8
20260507121554 2 349 8.0 11.3 0.00 0.00 0.00 58 1302.6
20260507121050 2 353 9.7 11.3 0.00 0.00 0.00 60 1302.8
20260507120546 2 16 8.0 11.3 0.00 0.00 0.00 61 1302.9
20260507120043 2 11 6.4 8.0 0.00 0.00 0.00 59 1302.5
20260507115540 2 331 8.0 12.9 0.00 0.00 0.00 60 1302.6
20260507115036 1 314 6.4 8.0 0.00 0.00 0.00 60 1302.5
20260507114531 1 350 6.4 8.0 0.00 0.00 0.00 60 1302.9
20260507114029 1 321 4.8 8.0 0.00 0.00 0.00 60 1302.9
20260507113526 1 3 6.4 8.0 0.00 0.00 0.00 60 1302.9
20260507113024 1 346 8.0 11.3 0.00 0.00 0.00 60 1302.8
20260507112521 1 10 8.0 9.7 0.00 0.00 0.00 60 1302.8
20260507112017 2 355 4.8 4.8 0.00 0.00 0.00 58 1302.9
20260507111515 1 4 9.7 11.3 0.00 0.00 0.00 58 1302.8
20260507111011 1 38 9.7 12.9 0.00 0.00 0.00 58 1302.5
20260507110508 1 71 6.4 8.0 0.00 0.00 0.00 59 1302.8
20260507110004 1 4 6.4 9.7 0.00 0.00 0.00 59 1302.9
20260507105501 1 345 4.8 4.8 0.00 0.00 0.00 59 1302.9
20260507104957 1 345 4.8 8.0 0.00 0.00 0.00 60 1302.9
20260507104455 1 350 8.0 9.7 0.00 0.00 0.00 59 1302.8
20260507103950 1 335 8.0 9.7 0.00 0.00 0.00 60 1302.6
20260507103447 1 25 4.8 4.8 0.00 0.00 0.00 60 1302.6
20260507102943 1 29 8.0 12.9 0.00 0.00 0.00 60 1302.8
20260507102440 1 359 8.0 9.7 0.00 0.00 0.00 60 1302.8
20260507101937 1 8 8.0 9.7 0.00 0.00 0.00 61 1302.8
20260507101432 1 16 6.4 9.7 0.00 0.00 0.00 60 1303.0
20260507100928 1 20 6.4 8.0 0.00 0.00 0.00 60 1303.0
20260507100426 1 355 8.0 11.3 0.00 0.00 0.00 61 1302.8
20260507095924 1 347 6.4 8.0 0.00 0.00 0.00 60 1303.2
20260507095421 1 21 4.8 8.0 0.00 0.00 0.00 61 1303.1
20260507094918 1 34 6.4 8.0 0.00 0.00 0.00 63 1302.9
20260507094414 1 49 4.8 4.8 0.00 0.00 0.00 63 1302.9
20260507093911 1 357 8.0 9.7 0.00 0.00 0.00 63 1303.1
20260507093409 1 44 3.2 3.2 0.00 0.00 0.00 64 1303.0
20260507092908 1 24 1.6 1.6 0.00 0.00 0.00 65 1303.0
20260507092403 1 17 3.2 3.2 0.00 0.00 0.00 65 1302.9
20260507091900 1 30 8.0 9.7 0.00 0.00 0.00 66 1302.8
20260507091356 1 351 8.0 9.7 0.00 0.00 0.00 67 1303.2
20260507090852 0 4 6.4 9.7 0.00 0.00 0.00 68 1303.2
20260507090349 0 61 6.4 9.7 0.00 0.00 0.00 70 1303.4
20260507085846 0 31 4.8 8.0 0.00 0.00 0.00 70 1303.5
20260507085342 0 14 6.4 8.0 0.00 0.00 0.00 70 1303.4
20260507084840 0 1 8.0 9.7 0.00 0.00 0.00 70 1303.4
20260507084336 0 18 4.8 8.0 0.00 0.00 0.00 76 1303.7
20260507083834 0 14 4.8 8.0 0.00 0.00 0.00 78 1303.2
20260507083330 0 356 3.2 3.2 0.00 0.00 0.00 80 1303.5
20260507082826 0 64 1.6 1.6 0.00 0.00 0.00 81 1303.4
20260507082322 0 40 4.8 4.8 0.00 0.00 0.00 82 1303.5
20260507081819 0 70 1.6 1.6 0.00 0.00 0.00 83 1303.4
20260507081315 0 62 4.8 4.8 0.00 0.00 0.00 85 1303.5
20260507080812 0 71 1.6 3.2 0.00 0.00 0.00 85 1303.5
20260507080308 0 47 3.2 3.2 0.00 0.00 0.00 89 1303.7
20260507075803 -1 52 0.0 1.6 0.00 0.00 0.00 93 1303.5
20260507075300 -1 28 4.8 4.8 0.00 0.00 0.00 97 1303.6
20260507074756 -1 39 3.2 3.2 0.00 0.00 0.00 99 1303.9
20260507074255 -1 28 3.2 3.2 0.00 0.00 0.00 99 1303.7
20260507073751 -2 70 1.6 3.2 0.00 0.00 0.00 99 1303.9
20260507073248 -2 88 0.0 0.0 0.00 0.00 0.00 99 1303.7
20260507072745 -2 93 0.0 0.0 0.00 0.00 0.00 99 1303.9
20260507072243 -2 99 0.0 0.0 0.00 0.00 0.00 99 1303.7
20260507071740 -2 113 0.0 0.0 0.00 0.00 0.00 99 1304.1
20260507071236 -2 98 0.0 0.0 0.00 0.00 0.00 99 1304.0
20260507070733 -2 104 0.0 0.0 0.00 0.00 0.00 99 1303.9
20260507070230 -2 93 0.0 0.0 0.00 0.00 0.00 99 1303.9
20260507065727 -2 109 0.0 0.0 0.00 0.00 0.00 99 1303.9
20260507065224 -2 109 0.0 0.0 0.00 0.00 0.00 99 1304.1
20260507064721 -2 110 0.0 0.0 0.00 0.00 0.00 99 1304.2
20260507064220 -2 93 0.0 0.0 0.00 0.00 0.00 99 1303.7
20260507063716 -2 83 0.0 0.0 0.00 0.00 0.00 99 1303.9
20260507063213 -2 99 0.0 0.0 0.00 0.00 0.00 99 1303.9
20260507062710 -2 89 0.0 0.0 0.00 0.00 0.00 99 1304.1
20260507062208 -1 88 0.0 0.0 0.00 0.00 0.00 99 1303.9
20260507061706 -1 79 0.0 1.6 0.00 0.00 0.00 99 1303.7
20260507061203 -1 105 0.0 0.0 0.00 0.00 0.00 99 1303.7
20260507060701 -1 92 0.0 0.0 0.00 0.00 0.00 99 1303.7
20260507060157 -1 99 0.0 0.0 0.00 0.00 0.00 99 1304.0
20260507055653 -1 92 0.0 0.0 0.00 0.43 0.43 99 1303.9
20260507055149 -1 106 0.0 0.0 0.00 0.43 0.43 99 1304.0
20260507054645 -1 83 0.0 0.0 0.00 0.43 0.43 99 1303.7
20260507054142 -1 96 0.0 0.0 0.00 0.43 0.43 99 1303.6
20260507053640 -1 93 0.0 0.0 0.00 0.43 0.43 99 1303.6
20260507053138 -1 93 1.6 1.6 0.00 0.43 0.43 99 1304.0
20260507052637 -1 94 0.0 1.6 0.00 0.43 0.43 99 1303.9
20260507052132 -1 113 0.0 0.0 0.00 0.43 0.43 99 1303.6
20260507051630 -1 129 1.6 1.6 0.00 0.43 0.43 99 1303.9
20260507051126 -1 100 0.0 0.0 0.00 0.43 0.43 99 1303.6
20260507050624 -1 127 1.6 3.2 0.00 0.43 0.43 99 1303.7
20260507050120 -1 109 0.0 0.0 0.00 0.43 0.43 99 1303.5
20260507045617 -1 104 3.2 3.2 0.00 0.43 0.43 99 1303.7
20260507045108 -1 105 4.8 4.8 0.00 0.43 0.43 99 1303.5
20260507044604 -1 105 3.2 4.8 0.00 0.43 0.43 99 1303.7
20260507044102 0 135 3.2 3.2 0.00 0.43 0.43 99 1303.7
20260507043557 0 122 4.8 8.0 0.00 0.43 0.43 99 1303.7
20260507043055 0 112 3.2 3.2 0.00 0.43 0.43 99 1303.6
20260507042551 0 104 0.0 0.0 0.00 0.43 0.43 99 1303.6
20260507042046 0 134 3.2 3.2 0.00 0.43 0.43 99 1303.7
20260507041544 0 157 4.8 4.8 0.00 0.43 0.43 99 1303.6
20260507041040 0 109 3.2 3.2 0.00 0.43 0.43 99 1303.7
20260507040537 0 108 1.6 1.6 0.00 0.43 0.43 98 1303.6
20260507040033 0 121 3.2 3.2 0.00 0.43 0.43 98 1304.0
20260507035529 0 112 6.4 8.0 0.00 0.43 0.43 97 1303.7
20260507035026 0 106 3.2 3.2 0.00 0.43 0.43 96 1303.7
20260507034523 0 110 1.6 1.6 0.00 0.43 0.43 96 1303.6
20260507034021 0 144 3.2 8.0 0.00 0.43 0.43 95 1303.9
20260507033519 0 98 3.2 3.2 0.00 0.43 0.43 95 1303.7
20260507033015 0 102 3.2 3.2 0.00 0.43 0.43 95 1303.6
20260507032512 0 104 1.6 3.2 0.00 0.43 0.43 94 1303.6
20260507032008 0 127 4.8 4.8 0.00 0.43 0.43 94 1303.6
20260507031504 0 118 4.8 4.8 0.00 0.43 0.43 93 1303.2
20260507031002 0 125 3.2 3.2 0.00 0.43 0.43 92 1303.6
20260507030459 0 111 1.6 1.6 0.00 0.43 0.43 92 1303.2
20260507025956 0 131 0.0 1.6 0.00 0.43 0.43 91 1303.2
20260507025453 0 105 1.6 3.2 0.00 0.43 0.43 91 1303.6
20260507024951 0 102 1.6 1.6 0.00 0.43 0.43 91 1303.4
20260507024448 0 158 3.2 3.2 0.00 0.43 0.43 90 1303.2
20260507023944 0 85 3.2 3.2 0.00 0.43 0.43 90 1303.1
20260507023441 0 118 1.6 1.6 0.00 0.43 0.43 90 1303.2
20260507022938 0 115 1.6 1.6 0.00 0.43 0.43 89 1303.1
20260507022435 0 96 0.0 1.6 0.00 0.43 0.43 88 1303.2
20260507021930 0 140 0.0 1.6 0.00 0.43 0.43 87 1303.4
20260507021425 0 165 3.2 8.0 0.00 0.43 0.43 86 1303.1
20260507020924 0 175 4.8 4.8 0.00 0.43 0.43 86 1303.5
20260507020420 0 121 3.2 3.2 0.00 0.43 0.43 86 1303.1
20260507015917 0 146 1.6 3.2 0.00 0.43 0.43 86 1303.0
20260507015415 0 110 1.6 1.6 0.00 0.43 0.43 85 1303.1
20260507014912 1 109 1.6 1.6 0.00 0.43 0.43 85 1303.1
20260507014409 1 102 0.0 1.6 0.00 0.43 0.43 85 1302.8
20260507013905 1 135 0.0 1.6 0.00 0.43 0.43 83 1303.1
20260507013402 1 80 4.8 8.0 0.00 0.43 0.43 82 1303.1
20260507012900 1 182 1.6 4.8 0.00 0.43 0.43 82 1303.1
20260507012355 2 175 3.2 4.8 0.00 0.43 0.43 80 1302.9
20260507011853 2 122 3.2 4.8 0.00 0.43 0.43 79 1302.9
20260507011350 2 220 1.6 1.6 0.00 0.43 0.43 79 1303.0
20260507010849 2 194 4.8 4.8 0.00 0.43 0.43 78 1302.9
20260507010345 2 158 6.4 8.0 0.00 0.43 0.43 78 1302.4
20260507005843 2 195 4.8 4.8 0.00 0.43 0.43 77 1302.9
20260507005339 3 221 4.8 12.9 0.00 0.43 0.43 77 1302.9
20260507004836 2 101 3.2 3.2 0.00 0.43 0.43 77 1303.0
20260507004333 3 208 1.6 3.2 0.00 0.43 0.43 77 1302.9
20260507003830 2 100 0.0 0.0 0.00 0.43 0.43 78 1302.9
20260507003326 2 98 1.6 1.6 0.00 0.43 0.43 78 1302.8
20260507002821 2 93 4.8 4.8 0.00 0.43 0.43 78 1302.9
20260507002317 2 100 3.2 8.0 0.00 0.43 0.43 77 1302.6
20260507001815 2 92 8.0 9.7 0.00 0.43 0.43 75 1302.5
20260507001312 3 172 6.4 9.7 0.00 0.43 0.43 76 1302.8
20260507000808 3 109 0.0 1.6 0.00 0.43 0.43 76 1302.6
20260507000306 2 96 3.2 3.2 0.00 0.43 0.43 76 1302.8
20260506235800 3 181 6.4 9.7 0.00 0.43 0.43 74 1302.6
20260506235256 3 234 6.4 8.0 0.00 0.43 0.43 72 1302.5
20260506234748 3 182 3.2 3.2 0.00 0.43 0.43 74 1302.6
20260506234245 3 210 3.2 3.2 0.00 0.43 0.43 72 1302.4
20260506233742 4 210 1.6 3.2 0.00 0.43 0.43 75 1302.8
20260506233238 3 70 1.6 1.6 0.00 0.43 0.43 73 1302.4
20260506232735 3 74 3.2 3.2 0.00 0.43 0.43 75 1302.6
20260506232230 3 93 0.0 0.0 0.00 0.43 0.43 76 1302.8
20260506231727 3 227 3.2 4.8 0.00 0.43 0.43 75 1303.0
20260506231226 2 201 4.8 8.0 0.00 0.43 0.43 76 1302.5
20260506230722 2 138 0.0 1.6 0.00 0.43 0.43 77 1302.9
20260506230219 1 121 0.0 1.6 0.00 0.43 0.43 77 1302.6
20260506225716 2 130 0.0 0.0 0.00 0.43 0.43 76 1302.6
20260506225213 2 106 0.0 1.6 0.00 0.43 0.43 79 1302.4
20260506224709 2 56 1.6 1.6 0.00 0.43 0.43 78 1302.5
20260506224207 1 125 0.0 0.0 0.00 0.43 0.43 77 1302.6
20260506223702 2 16 3.2 3.2 0.00 0.43 0.43 79 1302.5
20260506223158 1 18 6.4 11.3 0.00 0.43 0.43 80 1302.6
20260506222656 1 32 3.2 3.2 0.00 0.43 0.43 80 1302.4
20260506222151 1 321 8.0 11.3 0.00 0.43 0.43 81 1302.6
20260506221649 1 103 1.6 3.2 0.00 0.43 0.43 82 1303.0
20260506221147 1 99 1.6 1.6 0.00 0.43 0.43 78 1302.9
20260506220643 1 125 3.2 4.8 0.00 0.43 0.43 79 1302.8
20260506220138 2 221 4.8 4.8 0.00 0.43 0.43 80 1302.9
20260506215635 1 129 0.0 1.6 0.00 0.43 0.43 78 1302.9
20260506215131 1 116 0.0 1.6 0.00 0.43 0.43 79 1302.9
20260506214628 2 110 1.6 1.6 0.00 0.43 0.43 80 1303.0
20260506214126 2 235 4.8 4.8 0.00 0.43 0.43 82 1303.0
20260506213624 1 34 4.8 8.0 0.00 0.43 0.43 82 1302.8
20260506213121 2 9 4.8 11.3 0.00 0.43 0.43 84 1302.5
20260506212618 1 355 6.4 9.7 0.00 0.43 0.43 84 1302.9
20260506212113 1 24 4.8 8.0 0.00 0.43 0.43 83 1302.9
20260506211608 1 357 6.4 9.7 0.00 0.43 0.43 86 1302.9
20260506211106 0 17 3.2 3.2 0.00 0.43 0.43 86 1302.9
20260506210603 0 315 11.3 12.9 0.00 0.43 0.43 85 1302.9
20260506210059 1 346 6.4 8.0 0.00 0.43 0.43 88 1303.0
20260506205556 1 350 4.8 8.0 0.18 0.43 0.43 88 1303.2
20260506205051 0 60 4.8 4.8 0.18 0.43 0.43 87 1302.9
20260506204549 1 327 9.7 14.5 0.00 0.41 0.41 87 1302.6
20260506204045 1 102 3.2 3.2 0.13 0.41 0.41 88 1303.1
20260506203544 0 23 4.8 8.0 0.30 0.41 0.41 89 1303.0
20260506203040 1 348 6.4 9.7 0.30 0.38 0.38 89 1303.4
20260506202538 0 291 3.2 8.0 0.30 0.36 0.36 90 1303.0
20260506202034 0 342 9.7 12.9 0.30 0.33 0.33 88 1303.2
20260506201532 0 41 8.0 12.9 0.48 0.30 0.30 87 1303.1
20260506201028 1 315 9.7 11.3 0.61 0.25 0.25 86 1303.0
20260506200524 1 6 12.9 12.9 0.61 0.20 0.20 87 1302.9
20260506200021 0 51 4.8 8.0 0.71 0.13 0.13 89 1302.8
20260506195518 0 355 12.9 16.1 0.13 0.03 0.03 88 1302.8
20260506195014 0 22 6.4 11.3 0.00 0.00 0.00 87 1303.0
20260506194512 0 62 8.0 11.3 0.00 0.00 0.00 87 1302.8
20260506194008 0 88 4.8 8.0 0.00 0.00 0.00 87 1302.9
20260506193506 0 330 8.0 9.7 0.00 0.00 0.00 88 1302.9
20260506193003 0 7 11.3 14.5 0.00 0.00 0.00 89 1302.8
20260506192459 0 349 14.5 16.1 0.00 0.00 0.00 89 1302.8
20260506191955 0 286 11.3 24.1 0.00 0.00 0.00 90 1302.8
20260506191453 0 54 6.4 9.7 0.00 0.00 0.00 89 1302.4
20260506190949 0 348 9.7 12.9 0.00 0.00 0.00 87 1303.0
20260506190446 0 332 9.7 12.9 0.00 0.00 0.00 88 1302.8
20260506185942 0 29 3.2 3.2 0.00 0.00 0.00 89 1302.8
20260506185439 0 321 4.8 8.0 0.00 0.00 0.00 89 1302.8
20260506184936 0 41 4.8 8.0 0.00 0.00 0.00 90 1302.9
20260506184433 0 341 9.7 11.3 0.00 0.00 0.00 89 1303.0
20260506183931 0 88 4.8 8.0 0.00 0.00 0.00 91 1303.0
20260506183426 0 12 8.0 9.7 0.00 0.00 0.00 90 1303.1
20260506182923 0 16 6.4 8.0 0.00 0.00 0.00 91 1303.2
20260506182421 0 351 6.4 9.7 0.00 0.00 0.00 92 1303.1
20260506181918 0 50 3.2 4.8 0.00 0.00 0.00 93 1303.1
20260506181416 -1 37 8.0 9.7 0.00 0.00 0.00 94 1303.2
20260506180912 -1 351 4.8 8.0 0.00 0.00 0.00 95 1303.2
20260506180408 0 325 4.8 4.8 0.00 0.00 0.00 96 1302.9
20260506175905 0 96 3.2 3.2 0.00 0.00 0.00 96 1303.2
20260506175402 0 321 3.2 4.8 0.00 0.00 0.00 96 1303.1
20260506174859 0 163 1.6 3.2 0.00 0.00 0.00 95 1303.0
20260506174357 0 53 3.2 4.8 0.00 0.00 0.00 96 1303.0
20260506173854 0 98 4.8 8.0 0.00 0.00 0.00 97 1302.9
20260506173350 -1 289 6.4 8.0 0.00 0.00 0.00 96 1302.9
20260506172847 -1 350 6.4 8.0 0.00 0.00 0.00 97 1302.9
20260506172344 -1 0 4.8 4.8 0.00 0.00 0.00 97 1302.9
20260506171842 -1 346 3.2 4.8 0.00 0.00 0.00 98 1302.8
20260506171338 -1 34 1.6 3.2 0.00 0.00 0.00 98 1302.6
20260506170836 -1 84 3.2 3.2 0.00 0.00 0.00 98 1302.3
20260506170331 -1 35 3.2 3.2 0.00 0.00 0.00 98 1302.9
20260506165826 -1 62 4.8 8.0 0.00 0.00 0.00 98 1302.9
20260506165323 -1 353 3.2 3.2 0.00 0.00 0.00 97 1302.6
20260506164819 -1 342 8.0 11.3 0.00 0.00 0.00 97 1302.9
20260506164316 -1 46 3.2 3.2 0.00 0.00 0.00 97 1302.5
20260506163813 -1 6 6.4 8.0 0.00 0.00 0.00 97 1302.6
20260506163308 -1 345 6.4 8.0 0.00 0.00 0.00 97 1302.6
20260506162804 -1 5 1.6 3.2 0.00 0.00 0.00 97 1302.5
20260506162306 -1 359 4.8 4.8 0.00 0.00 0.00 97 1302.3